[[{"header":{"parameterUnit":"m.s-1","parameterCategory":1,"la1":30.2991,"la2":30.254,"lo1":-89.0895,"lo2":-89.0444,"dy":0.0017,"dx":0.0017,"nx":28,"ny":28,"refTime":"2024-02-10T03:00:00:Z","depth":0,"parameterNumber":2,"parameterNumberName":"U-component_of_WINDS"},"data":[0,0,0,0,0,0,0,0,0,0,0,0,0,0,0,0,0,0,0,0,0,0,0,0,0,0,0,0,0,0,0,0,0,0,0,0,0,0,0,0,0,0,0,0,0,0,0,0,0,0,0,0,0,0,0,0,0,0,-1.063,-1.063,0,-1.0628,-1.0628,-1.0628,-1.0629,-1.0629,-1.0629,-1.0629,-1.0627,-1.0627,-1.0627,0,0,0,0,0,0,0,0,0,0,0,0,0,-1.0632,-1.0632,-1.063,-1.063,-1.063,-1.0628,-1.0628,-1.0628,-1.0629,-1.0629,-1.0629,-1.0629,-1.0627,-1.0627,-1.0627,0,0,0,0,0,0,0,0,0,0,0,0,0,-1.0631,-1.0632,-1.063,-1.063,-1.063,-1.0628,-1.0628,-1.0628,-1.0629,-1.0629,-1.0629,-1.0629,-1.0627,-1.0627,-1.0627,-1.0624,0,0,-1.0626,-1.0626,0,0,0,0,0,0,0,0,-1.0631,-1.0631,-1.063,-1.063,-1.063,-1.0629,-1.0628,-1.0627,-1.0629,-1.0629,-1.0629,-1.0629,-1.0627,-1.0627,-1.0627,-1.0624,-1.0624,-1.0626,-1.0626,-1.0626,-1.0626,0,0,0,0,0,0,0,-1.0631,-1.0631,-1.0629,-1.063,-1.063,-1.063,-1.063,-1.0628,-1.0628,-1.0629,-1.0629,-1.0629,-1.0627,-1.0627,-1.0627,-1.0624,-1.0626,-1.0626,-1.0626,-1.0626,-1.0619,-1.0619,0,0,0,0,0,0,-1.0631,-1.0631,-1.0629,-1.0629,-1.0631,-1.063,-1.063,-1.0629,-1.0628,-1.0628,-1.0629,-1.0629,-1.0627,-1.0627,-1.0627,-1.0623,-1.0626,-1.0626,-1.0626,-1.0619,-1.0619,-1.0619,0,0,0,0,0,0,-1.0631,-1.0631,-1.0629,-1.063,-1.063,-1.063,-1.0629,-1.0629,-1.0629,-1.0628,-1.0628,-1.0629,-1.0627,-1.0627,-1.0625,-1.0623,-1.0626,-1.0626,-1.0619,-1.0619,-1.0619,-1.0617,0,0,0,0,0,0,-1.0631,-1.0631,-1.0631,-1.063,-1.063,-1.0628,-1.0629,-1.0629,-1.0628,-1.0629,-1.0628,-1.0627,-1.0627,-1.0625,-1.0625,-1.0623,-1.0626,-1.0619,-1.0619,-1.0619,-1.0617,-1.0617,-1.0617,0,0,0,0,0,-1.0631,-1.063,-1.0631,-1.063,-1.0629,-1.0628,-1.0628,-1.0628,-1.0628,-1.0628,-1.0627,-1.0627,-1.0624,-1.0625,-1.0624,-1.0623,-1.0619,-1.0619,-1.0619,-1.0617,-1.0617,-1.0617,0,0,0,0,0,0,-1.0631,-1.063,-1.0631,-1.0629,-1.0629,-1.0628,-1.0627,-1.0627,-1.0626,-1.0626,-1.0626,-1.0626,-1.0624,-1.0623,-1.0624,-1.062,-1.0621,-1.0621,-1.0621,-1.062,-1.062,-1.062,-1.0625,0,0,0,0,0,-1.063,-1.0629,-1.0629,-1.0628,-1.0628,-1.0627,-1.0627,-1.0627,-1.0626,-1.0626,-1.0625,-1.0624,-1.0622,-1.0621,-1.062,-1.0617,-1.0616,-1.0616,-1.0615,-1.0615,-1.0615,-1.0612,-1.0612,-1.0618,-1.0618,-1.0618,0,0,-1.063,-1.0629,-1.0629,-1.0628,-1.0627,-1.0626,-1.0627,-1.0626,-1.0625,-1.0625,-1.0623,-1.0623,-1.0621,-1.0619,-1.0617,-1.0618,-1.0613,-1.0615,-1.0615,-1.0614,-1.0612,-1.0612,-1.0611,-1.0618,-1.0618,-1.0618,0,0,-1.0628,-1.0627,-1.0626,-1.0626,-1.0625,-1.0624,-1.0624,-1.0623,-1.0623,-1.0621,-1.0621,-1.0619,-1.0617,-1.0616,-1.0615,-1.0611,-1.0611,-1.0611,-1.0609,-1.0607,-1.0606,-1.0606,-1.0604,-1.0604,-1.0611,-1.0611,-1.0611,0,-1.0627,-1.0625,-1.0625,-1.0624,-1.0623,-1.0624,-1.0622,-1.0621,-1.062,-1.0619,-1.062,-1.0616,-1.0615,-1.0612,-1.0611,-1.0611,-1.061,-1.0611,-1.0607,-1.0606,-1.0606,-1.0604,-1.0603,-1.061,-1.061,-1.0611,-1.0611,0,-1.0624,-1.0623,-1.0622,-1.062,-1.062,-1.0618,-1.0617,-1.0616,-1.0616,-1.0616,-1.0613,-1.0612,-1.061,-1.0609,-1.0609,-1.0606,-1.0606,-1.0607,-1.0608,-1.0605,-1.0603,-1.0603,-1.061,-1.061,-1.061,-1.061,0,0,-1.0622,-1.062,-1.062,-1.0619,-1.0618,-1.0616,-1.0614,-1.0613,-1.0611,-1.061,-1.0608,-1.0606,-1.0606,-1.0605,-1.0605,-1.0603,-1.0599,-1.0603,-1.0603,-1.0602,-1.0594,-1.0594,-1.0593,-1.0599,-1.0599,-1.0599,-1.0594,0,-1.0619,-1.0617,-1.0616,-1.0613,-1.0612,-1.0612,-1.061,-1.0609,-1.0608,-1.0606,-1.0605,-1.0603,-1.0604,-1.0603,-1.0601,-1.06,-1.0598,-1.06,-1.0597,-1.0597,-1.0597,-1.0592,-1.0592,-1.0587,-1.0594,-1.0593,-1.0593,0,-1.0617,-1.0615,-1.0612,-1.061,-1.061,-1.0608,-1.0606,-1.0604,-1.0603,-1.0602,-1.06,-1.06,-1.0597,-1.0599,-1.0595,-1.0596,-1.0595,-1.0594,-1.0594,-1.0593,-1.0595,-1.0591,-1.0586,-1.0585,-1.0592,-1.0593,-1.0593,0,-1.0615,-1.0612,-1.061,-1.0609,-1.0607,-1.0606,-1.0605,-1.0603,-1.0602,-1.0599,-1.0598,-1.0596,-1.0595,-1.0592,-1.0591,-1.0592,-1.0587,-1.0588,-1.0585,-1.0585,-1.0584,-1.0584,-1.0578,-1.0584,-1.0584,-1.0584,-1.0584,0,-1.0612,-1.061,-1.0609,-1.0607,-1.0605,-1.0604,-1.0602,-1.0601,-1.0599,-1.0597,-1.0596,-1.0594,-1.0593,-1.059,-1.0589,-1.0585,-1.0585,-1.0584,-1.0583,-1.0584,-1.0584,-1.0582,-1.0582,-1.0584,-1.0584,-1.0584,-1.0584,0,-1.061,-1.0609,-1.0606,-1.0604,-1.0604,-1.0602,-1.06,-1.0598,-1.0597,-1.0594,-1.0593,-1.0592,-1.0589,-1.0587,-1.0583,-1.0582,-1.0578,-1.0578,-1.0579,-1.0578,-1.0576,-1.0576,-1.0568,-1.0567,-1.0574,-1.0574,-1.0574,0,-1.0608,-1.0606,-1.0604,-1.0603,-1.0602,-1.06,-1.0598,-1.0597,-1.0595,-1.0593,-1.0591,-1.0588,-1.0585,-1.058,-1.0578,-1.0575,-1.0574,-1.0572,-1.0574,-1.0574,-1.0573,-1.0573,-1.0573,-1.0571,-1.0571,-1.0571,-1.0571,0,-1.0605,-1.0604,-1.0602,-1.06,-1.0598,-1.0596,-1.0594,-1.0593,-1.0591,-1.0589,-1.0586,-1.0584,-1.058,-1.0576,-1.0573,-1.0571,-1.0571,-1.0571,-1.057,-1.057,-1.057,-1.0569,-1.0577,-1.0571,-1.0571,-1.0571,-1.0571,-1.0571,-1.0602,-1.0601,-1.0599,-1.0596,-1.0594,-1.0592,-1.059,-1.0589,-1.0586,-1.0583,-1.0582,-1.0579,-1.0576,-1.0571,-1.0569,-1.0566,-1.0566,-1.0565,-1.0565,-1.0564,-1.0564,-1.0571,-1.0565,-1.0565,-1.0565,-1.0565,-1.0565,0,-1.0599,-1.0597,-1.0595,-1.0592,-1.059,-1.059,-1.0587,-1.0585,-1.0582,-1.058,-1.0577,-1.0573,-1.0569,-1.0566,-1.0563,-1.056,-1.056,-1.0559,-1.0559,-1.0559,-1.0564,-1.0565,-1.056,-1.056,-1.056,-1.056,-1.056,-1.056,-1.0597,-1.0593,-1.0593,-1.0588,-1.0587,-1.0583,-1.0582,-1.0579,-1.0577,-1.0573,-1.057,-1.0568,-1.0565,-1.0561,-1.0557,-1.0556,-1.0555,-1.0554,-1.0553,-1.0558,-1.0558,-1.0559,-1.056,-1.0554,-1.0554,-1.0548,-1.0548,-1.0548]},{"header":{"parameterUnit":"m.s-1","parameterCategory":1,"la1":30.2991,"la2":30.254,"lo1":-89.0895,"lo2":-89.0444,"dy":0.0017,"dx":0.0017,"nx":28,"ny":28,"refTime":"2024-02-10T03:00:00:Z","depth":0,"parameterNumber":3,"parameterNumberName":"V-component_of_WINDS"},"data":[0,0,0,0,0,0,0,0,0,0,0,0,0,0,0,0,0,0,0,0,0,0,0,0,0,0,0,0,0,0,0,0,0,0,0,0,0,0,0,0,0,0,0,0,0,0,0,0,0,0,0,0,0,0,0,0,0,0,2.1691,2.1693,0,2.1879,2.1881,2.1883,2.195,2.1949,2.1948,2.1948,2.2144,2.2149,2.2155,0,0,0,0,0,0,0,0,0,0,0,0,0,2.1393,2.1398,2.1691,2.1693,2.1696,2.1879,2.1881,2.1884,2.195,2.1949,2.1948,2.1947,2.2142,2.2149,2.2156,0,0,0,0,0,0,0,0,0,0,0,0,0,2.1546,2.14,2.169,2.1751,2.1758,2.1878,2.1881,2.1884,2.195,2.1949,2.1948,2.1947,2.2139,2.2148,2.2157,2.2232,0,0,2.2183,2.2187,0,0,0,0,0,0,0,0,2.1537,2.1557,2.1739,2.1747,2.1755,2.189,2.1848,2.2001,2.195,2.1877,2.1948,2.1946,2.206,2.2075,2.2113,2.2241,2.2249,2.2184,2.219,2.2193,2.2196,0,0,0,0,0,0,0,2.1526,2.1549,2.1765,2.1742,2.1751,2.1769,2.179,2.1877,2.1972,2.1883,2.1889,2.191,2.2064,2.2104,2.2118,2.2252,2.2184,2.2192,2.2197,2.2201,2.2454,2.2455,0,0,0,0,0,0,2.1505,2.154,2.1759,2.1771,2.1641,2.1776,2.1799,2.1848,2.1972,2.1989,2.1911,2.1912,2.209,2.2108,2.2125,2.2224,2.2193,2.2202,2.2207,2.2453,2.2454,2.2456,0,0,0,0,0,0,2.1499,2.1524,2.1752,2.1657,2.1687,2.1782,2.1836,2.1852,2.1892,2.1992,2.201,2.1934,2.209,2.2113,2.2205,2.2231,2.2205,2.2213,2.2451,2.2453,2.2455,2.242,0,0,0,0,0,0,2.149,2.1521,2.155,2.1657,2.1692,2.1827,2.1838,2.1856,2.1907,2.1911,2.2019,2.2036,2.2091,2.2192,2.2214,2.2243,2.222,2.2449,2.2452,2.2454,2.2419,2.242,2.2422,0,0,0,0,0,2.1479,2.1533,2.1551,2.1577,2.173,2.1829,2.1849,2.191,2.1908,2.1939,2.2003,2.2032,2.2224,2.2201,2.2226,2.2258,2.2448,2.2451,2.2454,2.2418,2.242,2.2421,0,0,0,0,0,0,2.1428,2.1548,2.157,2.1659,2.1733,2.184,2.188,2.191,2.1986,2.1987,2.2061,2.2085,2.2172,2.2224,2.2196,2.2339,2.2338,2.2346,2.2302,2.2304,2.2305,2.2292,2.2228,0,0,0,0,0,2.1426,2.1496,2.1597,2.1667,2.1703,2.1785,2.183,2.1871,2.1951,2.1983,2.2054,2.2131,2.2209,2.2259,2.2337,2.2426,2.2452,2.2461,2.2462,2.2463,2.247,2.2524,2.253,2.2467,2.2467,2.2467,0,0,2.1425,2.15,2.1539,2.1659,2.1721,2.1792,2.1811,2.1885,2.194,2.1995,2.2086,2.2141,2.2232,2.2324,2.2368,2.237,2.2493,2.2467,2.2466,2.2474,2.2528,2.2533,2.2539,2.2469,2.2468,2.2468,0,0,2.1461,2.1523,2.1588,2.165,2.1743,2.1798,2.1813,2.1915,2.1954,2.2046,2.209,2.2156,2.2288,2.2352,2.2402,2.2462,2.2492,2.2485,2.2492,2.2544,2.2549,2.2553,2.2577,2.2584,2.2491,2.2491,2.2491,0,2.1448,2.1557,2.1619,2.1692,2.1744,2.1795,2.1864,2.1921,2.2035,2.207,2.2071,2.2239,2.2304,2.2412,2.2427,2.2465,2.2487,2.2474,2.2542,2.2548,2.2554,2.2577,2.2585,2.249,2.249,2.249,2.249,0,2.1538,2.1612,2.1654,2.1762,2.1819,2.1889,2.1963,2.2014,2.2049,2.2104,2.2199,2.2279,2.2374,2.2402,2.2438,2.2516,2.2515,2.2528,2.2529,2.2557,2.2581,2.259,2.2488,2.2488,2.2489,2.2489,0,0,2.1547,2.1689,2.1703,2.1754,2.1861,2.192,2.1993,2.2085,2.2128,2.2204,2.2269,2.238,2.2393,2.2449,2.2493,2.2537,2.2583,2.2546,2.2549,2.2552,2.2677,2.2668,2.2677,2.2602,2.2604,2.2606,2.267,0,2.1598,2.173,2.1788,2.1895,2.1965,2.2015,2.2079,2.2153,2.2205,2.2274,2.2333,2.2411,2.2421,2.2456,2.2502,2.2567,2.2609,2.2563,2.2665,2.2668,2.2643,2.2689,2.2681,2.2737,2.2679,2.2681,2.2682,0,2.1676,2.1752,2.1865,2.1965,2.1997,2.2053,2.2143,2.2207,2.2292,2.2327,2.239,2.2432,2.2512,2.2505,2.2619,2.2586,2.2631,2.2669,2.2673,2.2687,2.2679,2.2707,2.2757,2.2766,2.2697,2.2695,2.2694,0,2.1675,2.1806,2.1891,2.1932,2.2049,2.2088,2.2139,2.2222,2.2275,2.2353,2.2388,2.2475,2.2524,2.2591,2.2656,2.2644,2.2763,2.2762,2.2797,2.2796,2.2822,2.282,2.2882,2.2846,2.2846,2.2846,2.2846,0,2.1727,2.1795,2.1892,2.1944,2.2022,2.2089,2.2165,2.222,2.2293,2.2359,2.2407,2.2467,2.2548,2.2619,2.267,2.2757,2.2778,2.2811,2.2824,2.2808,2.2804,2.2841,2.2839,2.2848,2.2848,2.2847,2.2847,0,2.174,2.1807,2.1904,2.2007,2.2034,2.2087,2.2177,2.223,2.2285,2.2367,2.239,2.2477,2.2563,2.2634,2.2747,2.2781,2.2874,2.2887,2.2845,2.2852,2.2885,2.2882,2.2975,2.2992,2.2941,2.2942,2.2942,0,2.177,2.1823,2.1932,2.1979,2.2029,2.2103,2.2157,2.2225,2.2279,2.2379,2.2421,2.2511,2.2587,2.2723,2.2797,2.2884,2.2902,2.2928,2.2916,2.2898,2.2906,2.2903,2.291,2.293,2.2931,2.2931,2.2931,0,2.1818,2.1848,2.1923,2.2009,2.2071,2.2143,2.2216,2.2252,2.2333,2.2391,2.248,2.2538,2.2654,2.2743,2.2838,2.2893,2.2927,2.2934,2.2947,2.2933,2.2907,2.2924,2.2851,2.2932,2.2932,2.2932,2.2932,2.2932,2.1842,2.1893,2.1977,2.2059,2.2121,2.2188,2.2244,2.2306,2.238,2.2479,2.2515,2.2606,2.2691,2.2822,2.2877,2.295,2.2954,2.2972,2.2978,2.2982,2.2981,2.2893,2.2968,2.2968,2.2968,2.2968,2.2968,0,2.1895,2.1951,2.2026,2.2126,2.2191,2.2215,2.2297,2.235,2.243,2.2505,2.2578,2.2681,2.2768,2.2848,2.294,2.2983,2.3001,2.3005,2.3004,2.3017,2.2972,2.2952,2.2989,2.2989,2.2989,2.2989,2.2989,2.2989,2.193,2.2017,2.2058,2.2177,2.2234,2.2323,2.2368,2.2431,2.2492,2.2604,2.2676,2.2727,2.2806,2.2903,2.2985,2.3006,2.3039,2.304,2.3065,2.3023,2.302,2.3017,2.2999,2.3045,2.3045,2.3105,2.3106,2.3106]}]]